Location: Newark
(42.1667°N, 14.5667°E)
Time: 01:01:04
(UTC+00:00)

Envisat - Pass Details

Date: 02 February 2020
Orbit: 764 x 766 km, 98.1° (Epoch: 20 February)

Event Time Altitude Azimuth Distance (km) Brightness Sun altitude
Rises 04:35:37 0° 28° (NNE) 3,239 6.5 -18.6°
Reaches altitude 10° 04:38:33 10° 46° (NE) 2,307 6.0 -18.0°
Maximum altitude 04:42:13 20° 92° (E) 1,729 5.8 -17.3°
Drops below altitude 10° 04:45:50 10° 138° (SE) 2,295 6.2 -16.7°
Sets 04:48:44 0° 155° (SSE) 3,216 6.7 -16.1°
